Meteo Giornale » Osservazioni meteo Stati Uniti (USA) » Los Angeles

ore: 10:53 - Osservazioni Meteo Los Angeles
Lat. 33° 56' N Lon. 118° 23' W Alt. 38 metri s.l.m.

poco_nuvoloso America/Los_Angeles

17 °C

Poco Nuvoloso

Temp. 24 Ore

12 °C

17 °C

Ovest/Sud-Ovest

13 Km/h

Dew point 11 °C

Umidità 67 %

Visibilità  11 Km

Il sole sorge alle ore 06:19

Il sole tramonta alle ore 19:27

Data e Ora Cielo e Fenomeni T °C DP °C Um. % Pres. hPa Vis. km Vento km/h
Oggi h: 10:53 poco_nuvoloso Poco Nuvoloso 17 11 67 1014 11 O/SO 13
Oggi h: 09:53 foschia Foschia 16 10 67 1014 10 O 9.3
Oggi h: 08:53 foschia Foschia 14 9 71 1014 10 N 5.5
Oggi h: 08:12 foschia Foschia 14 9 71 1014 10 N 0
Oggi h: 07:53 foschia Foschia 13 9 76 1014 10 NE 9.3
Oggi h: 06:53 foschia Foschia 13 9 76 1014 10 N 5.5
Oggi h: 05:53 molto_nuvoloso Molto Nuvoloso 12 9 81 1014 14 E/NE 7.4
Oggi h: 05:27 molto_nuvoloso Molto Nuvoloso 12 9 81 1014 10 N 5.5
Oggi h: 04:53 nuvoloso Nuvoloso 12 9 81 1014 10 N 7.4
Oggi h: 03:53 nuvoloso Nuvoloso 13 9 76 1014 10 N 0
Oggi h: 03:50 nuvoloso Nuvoloso 13 10 81 1014 10 N 5.5
Oggi h: 02:53 coperto Coperto 13 10 81 1014 10 N 7.4
Oggi h: 01:53 coperto Coperto 13 10 81 1015 10 N 5.5
Oggi h: 00:53 molto_nuvoloso Molto Nuvoloso 13 10 81 1016 10 N 5.5
Ieri h: 23:53 molto_nuvoloso Molto Nuvoloso 13 10 81 1016 10 NO 7.4
Ieri h: 22:53 molto_nuvoloso Molto Nuvoloso 13 10 81 1016 10 O/SO 7.4
Ieri h: 20:53 molto_nuvoloso Molto Nuvoloso 13 11 87 1016 10 O 11.1
Ieri h: 20:50 molto_nuvoloso Molto Nuvoloso 13 11 87 1016 10 O 14.8
Ieri h: 19:53 nuvoloso Nuvoloso 13 10 81 1015 10 O/SO 14.8
Ieri h: 18:53 molto_nuvoloso Molto Nuvoloso 13 9 76 1015 10 O/SO 16.7
Ieri h: 17:53 nuvoloso Nuvoloso 14 9 71 1015 10 O/SO 20.3
Ieri h: 16:53 nuvoloso Nuvoloso 16 9 63 1015 10 O/SO 22.2
Ieri h: 16:14 nuvoloso Nuvoloso 16 9 63 1016 10 O/SO 24
Ieri h: 15:53 molto_nuvoloso Molto Nuvoloso 16 9 63 1016 10 O 27.8
Ieri h: 15:25 molto_nuvoloso Molto Nuvoloso 16 9 63 1016 10 O/SO 25.9
Ieri h: 14:53 nuvoloso Nuvoloso 16 8 58 1016 10 O/SO 25.9
Ieri h: 13:53 nuvoloso Nuvoloso 17 8 55 1016 10 SO 25.9
Ieri h: 12:53 nuvoloso Nuvoloso 17 8 55 1016 10 O/SO 16.7
Ieri h: 11:53 molto_nuvoloso Molto Nuvoloso 16 8 58 1017 10 O/SO 18.5